Portada
METAR-TAF:

METAR-TAF

Aeroports :

Hughenden, Austràlia

latitud: 20-48-54S, longitud: 144-13-30E, altitud: 318 m

Observació

L'informe es va fer fa 1 hora i 9 minuts, a les 14:00 UTC
Vent 4 kt del Nord/Nord-Oest
Temperatura 24°C
Humitat 78%
Pressió 1007 hPa
Núvols disperses a una alçada de 4900 ft
Núvols disperses a una alçada de 6600 ft

METAR: YHUG 131400Z AUTO 33004KT //// // SCT049 SCT066 24/20 Q1007

Hora: 01:09 (15:09 UTC)


TAF: manca

Observacions i pronòstics meteorològics de més de 4000 aeroports (METAR i TAF).

Les estacions disponibles són els punts grocs i vermells al mapa.

Posi el ratolí al punt desitjat per veure el nom de l'estació.

Feu clic per veure les observacions i els pronòstics meteorològics.

Per canviar el mapa: feu clic els botons verds amb una creu de color negre per apropar; al botó verd amb un guió per allunyar la imatge; o en les fletxes verdes per a mapes adjacents.


METAR-TAF: